📊 Raw Sensor Data

Showing records 34551 to 34575 of 84,859 total

ID Distance (ft) Battery V Battery A Int Temp (°F) Int Humid (%) Ext Temp (°F) Solar V RSSI SNR Time Stamp
50321 15.7 3.72 0 99 49 89 5.10 -70 7 08/26/2025 05:45 PM
50320 15.7 3.78 0 100 49 90 5.10 -70 7 08/26/2025 05:30 PM
50319 16.0 3.72 0 103 48 90 5.10 -72 7 08/26/2025 05:15 PM
50318 15.7 3.79 0 105 47 93 5.10 -71 8 08/26/2025 05:00 PM
50317 15.7 3.97 0 106 46 96 5.10 -71 8 08/26/2025 04:45 PM
50316 15.7 3.72 0 106 45 97 5.10 -71 8 08/26/2025 04:30 PM
50315 15.7 3.72 0 105 45 93 5.10 -70 8 08/26/2025 04:15 PM
50314 15.7 3.72 0 105 44 93 5.10 -70 8 08/26/2025 04:00 PM
50313 15.7 3.72 0 104 44 92 5.10 -70 7 08/26/2025 03:45 PM
50312 15.7 3.71 0 104 44 94 5.10 -70 8 08/26/2025 03:30 PM
50311 15.8 3.72 0 104 43 92 5.10 -71 7 08/26/2025 03:15 PM
50310 15.8 3.72 0 104 42 91 5.10 -70 8 08/26/2025 03:00 PM
50309 15.7 3.72 0 104 41 95 5.10 -72 7 08/26/2025 02:45 PM
50308 15.6 4.03 0 102 41 94 5.10 -70 8 08/26/2025 02:30 PM
50307 15.6 3.71 0 100 41 92 5.10 -71 7 08/26/2025 02:15 PM
50306 15.5 3.71 0 95 43 91 5.10 -70 8 08/26/2025 02:00 PM
50305 15.6 4.03 0 92 45 87 5.10 -71 8 08/26/2025 01:45 PM
50304 15.6 3.71 0 94 43 88 5.10 -71 8 08/26/2025 01:30 PM
50303 15.7 3.80 0 95 42 88 5.10 -71 8 08/26/2025 01:15 PM
50302 15.6 3.71 0 90 43 86 5.10 -70 7 08/26/2025 12:45 PM
50301 15.7 3.79 0 90 42 85 5.10 -71 7 08/26/2025 12:30 PM
50300 14.5 3.71 0 88 43 84 5.10 -72 8 08/26/2025 12:15 PM
50299 15.6 3.85 0 86 44 83 5.10 -72 8 08/26/2025 12:00 PM
50298 15.6 3.71 0 86 43 82 5.10 -69 7 08/26/2025 11:45 AM
50297 15.6 3.71 0 87 42 83 5.10 -69 7 08/26/2025 11:30 AM